KDAY Airport Diagram

We have created a template for each of the higher traffic airports in the vZID airspace. They include KCMH, KCRW, KCVG, KDAY, KIND, KLEX and KSDF. You wil find usefull information including the airport diagram, weather, and specific airport procedures.

KDAY Weather

[Source: ADDS]
METAR
KDAY 211756Z 11010KT 10SM BKN110 16/04 A3012 RMK AO2 SLP199 T01610044 10161 20100 58004 =
KDAY 211740Z 2118/2218 12014KT P6SM BKN100 FM220000 09010KT P6SM SCT080 BKN200 FM221200 13010KT P6SM BKN200 FM221500 18013KT P6SM BKN180
TAF
KDAY 211740Z 2118/2218 12014KT P6SM BKN100 FM220000 09010KT P6SM SCT080 BKN200 FM221200 13010KT P6SM BKN200 FM221500 18013KT P6SM BKN180 =

KDAY Operations

Approach/Departure operations for KDAY were consolidated into the Columbus TRACON quite some time back. We have recently made that change here at ZID. When arriving/departing the Dayton Airport and airports in the surrounding area, contact with the Columbus APP/DEP controller, if online, should be expected.

Calm Wind Configuration is runways 24L/R. This configuration is used up to and including 10kts.

Runway 24L typically departs south and east, except larger aircraft requiring a longer runway.

Runway 24R typically departs north and west.

 

JSN Epic template designed by JoomlaShine.com